DW8463 Weather Reports


Display with metric or nautical units.
time (UTC)temp
F
wind
direction
speed
MPH
gust
MPH
rain 1hr
in
rain 24hr
in
rain mn
in
humidity
%
barometer
mb
20220815063804 59 86 0.0 1.0 0.00 0.00 0.00 100 1016.9
20220815061304 59 86 0.0 1.0 0.00 0.00 0.00 100 1016.9
20220815060804 60 86 0.0 1.0 0.00 0.00 0.00 100 1016.9
20220815055804 60 86 0.0 1.0 0.00 0.00 0.00 100 1016.8
20220815055305 60 86 0.0 0.0 0.00 0.00 0.00 100 1016.8
20220815054804 60 86 0.0 0.0 0.00 0.00 0.00 100 1016.8
20220815052804 61 86 0.0 1.0 0.00 0.00 0.00 100 1016.5
20220815051804 62 86 0.0 1.0 0.00 0.00 0.00 100 1016.6
20220815050828 62 86 0.0 2.0 0.00 0.00 0.00 100 1016.4
20220815045804 63 86 0.0 3.0 0.00 0.00 0.00 100 1016.4
20220815044804 63 56 1.0 2.0 0.00 0.00 0.00 100 1016.4
20220815042305 63 56 0.0 1.0 0.00 0.00 0.00 100 1016.5
20220815035305 63 56 0.0 1.0 0.00 0.00 0.00 87 1016.6
20220815034804 63 56 0.0 2.0 0.00 0.00 0.00 87 1016.6
20220815034304 63 56 1.0 2.0 0.00 0.00 0.00 87 1016.5
20220815033304 63 56 1.0 1.0 0.00 0.00 0.00 87 1016.5
20220815032305 63 56 1.0 2.0 0.00 0.00 0.00 87 1016.6
20220815031804 63 56 0.0 1.0 0.00 0.00 0.00 87 1016.6
20220815031304 63 56 0.0 0.0 0.00 0.00 0.00 87 1016.5
20220815030304 63 56 0.0 1.0 0.00 0.00 0.00 87 1016.5
20220815024304 63 56 1.0 2.0 0.00 0.00 0.00 87 1016.7
20220815022305 63 56 0.0 2.0 0.00 0.00 0.00 87 1016.8
20220815021804 63 56 1.0 1.0 0.00 0.00 0.00 87 1016.7
20220815021304 63 56 1.0 2.0 0.00 0.00 0.00 87 1016.7
20220815020804 63 56 0.0 1.0 0.00 0.00 0.00 87 1016.5
20220815020304 63 56 0.0 1.0 0.00 0.00 0.00 87 1016.5
20220815015804 63 56 0.0 0.0 0.00 0.00 0.00 88 1016.4
20220815013804 63 56 0.0 1.0 0.00 0.00 0.00 88 1016.4
20220815012305 64 56 1.0 1.0 0.00 0.00 0.00 88 1016.4
20220815010804 66 56 0.0 0.0 0.00 0.00 0.00 88 1016.3
20220815010304 67 56 0.0 1.0 0.00 0.00 0.00 86 1016.3
20220815005804 67 56 1.0 2.0 0.00 0.00 0.00 77 1016.4
20220815005305 67 56 0.0 1.0 0.00 0.00 0.00 77 1016.4
20220815004804 68 56 0.0 1.0 0.00 0.00 0.00 77 1016.4
20220815004304 68 56 1.0 2.0 0.00 0.00 0.00 77 1016.4
20220815002305 68 29 2.0 5.0 0.00 0.00 0.00 77 1016.7
20220815000304 68 346 3.0 5.0 0.00 0.00 0.00 77 1016.7
20220814234304 69 39 3.0 5.0 0.00 0.00 0.00 82 1016.6
20220814233804 69 42 1.0 3.0 0.00 0.00 0.00 82 1016.6
20220814233304 69 358 3.0 8.0 0.00 0.00 0.00 82 1016.5
20220814232305 69 68 2.0 3.0 0.00 0.00 0.00 82 1016.5
20220814231804 69 20 3.0 5.0 0.00 0.00 0.00 82 1016.5
20220814231304 69 37 2.0 5.0 0.00 0.00 0.00 82 1016.5
20220814225804 69 31 3.0 8.0 0.00 0.00 0.00 82 1016.5
20220814224304 69 70 2.0 5.0 0.00 0.00 0.00 82 1016.4
20220814222305 69 102 3.0 6.0 0.00 0.00 0.00 82 1016.4
20220814215804 69 68 2.0 3.0 0.00 0.00 0.00 77 1016.4
20220814215305 69 80 3.0 6.0 0.00 0.00 0.00 77 1016.3
20220814214804 69 95 3.0 6.0 0.00 0.00 0.00 77 1016.3
20220814212305 69 72 1.0 3.0 0.00 0.00 0.00 77 1016.4
20220814205305 69 98 1.0 3.0 0.00 0.00 0.00 82 1016.4
20220814204804 69 53 3.0 5.0 0.00 0.00 0.00 82 1016.3
20220814204304 69 77 2.0 5.0 0.00 0.00 0.00 82 1016.2
20220814202804 69 23 2.0 7.0 0.00 0.00 0.00 82 1016.1
20220814201804 69 350 3.0 9.0 0.00 0.00 0.00 82 1016.1
20220814200804 69 52 3.0 5.0 0.00 0.00 0.00 82 1016.2
20220814200304 69 353 3.0 6.0 0.00 0.00 0.00 82 1016.2
20220814195305 69 342 2.0 3.0 0.00 0.00 0.00 82 1016.3
20220814194304 69 50 2.0 5.0 0.00 0.00 0.00 82 1016.3
20220814193304 68 60 2.0 6.0 0.00 0.00 0.00 82 1016.4
20220814192804 68 353 3.0 5.0 0.00 0.00 0.00 82 1016.3
20220814191304 68 36 3.0 5.0 0.00 0.00 0.00 82 1016.3
20220814190804 68 35 4.0 7.0 0.00 0.00 0.00 82 1016.4
20220814190304 68 346 3.0 6.0 0.00 0.00 0.00 82 1016.4
20220814185305 68 126 2.0 6.0 0.00 0.00 0.00 82 1016.2
20220814183804 67 36 3.0 7.0 0.00 0.00 0.00 82 1016.4
20220814182304 67 46 2.0 8.0 0.00 0.00 0.00 82 1016.5
20220814181304 67 89 3.0 7.0 0.00 0.00 0.00 82 1016.6
20220814180804 67 13 4.0 8.0 0.00 0.00 0.00 82 1016.6
20220814173804 66 61 2.0 8.0 0.00 0.00 0.00 88 1016.5
20220814172804 65 52 3.0 6.0 0.00 0.00 0.00 88 1016.6
20220814170804 64 1 4.0 7.0 0.00 0.00 0.00 88 1016.8
20220814170304 64 10 2.0 6.0 0.00 0.00 0.00 88 1016.8
20220814165804 64 351 2.0 3.0 0.00 0.00 0.00 88 1016.9
20220814165304 64 32 3.0 7.0 0.00 0.00 0.00 88 1016.9
20220814164804 64 47 2.0 3.0 0.00 0.00 0.00 88 1017.0
20220814164304 63 38 2.0 5.0 0.00 0.00 0.00 88 1017.1
20220814163304 63 15 3.0 7.0 0.00 0.00 0.00 88 1017.2
20220814162305 64 343 2.0 5.0 0.00 0.00 0.00 88 1017.2
20220814160804 63 342 3.0 5.0 0.00 0.00 0.00 88 1017.4
20220814160304 63 336 3.0 7.0 0.00 0.00 0.00 88 1017.3
20220814155804 63 340 4.0 9.0 0.00 0.00 0.00 88 1017.2
20220814153804 63 346 3.0 8.0 0.00 0.00 0.00 88 1017.0
20220814153304 62 3 4.0 8.0 0.00 0.00 0.00 88 1017.0
20220814152804 62 359 5.0 10.0 0.00 0.00 0.00 88 1017.0
20220814152305 62 355 5.0 7.0 0.00 0.00 0.00 88 1016.9
20220814151304 62 354 3.0 6.0 0.00 0.00 0.00 88 1016.9
20220814150804 62 355 2.0 3.0 0.00 0.00 0.00 88 1016.8
20220814145305 62 322 3.0 5.0 0.00 0.00 0.00 93 1016.6
20220814144805 62 342 3.0 7.0 0.00 0.00 0.00 93 1016.6
20220814142804 62 1 3.0 5.0 0.00 0.00 0.00 93 1016.4
20220814142305 62 341 3.0 5.0 0.00 0.00 0.00 93 1016.4
20220814141804 62 355 2.0 5.0 0.00 0.00 0.00 93 1016.4
20220814140304 62 301 3.0 7.0 0.00 0.00 0.00 93 1016.3
20220814135804 62 312 2.0 5.0 0.00 0.00 0.00 87 1016.3
20220814133304 62 321 3.0 5.0 0.00 0.00 0.00 87 1016.1
20220814131304 62 12 2.0 8.0 0.00 0.00 0.00 87 1015.9
20220814130304 62 347 3.0 5.0 0.00 0.00 0.00 87 1016.0
20220814125804 62 10 2.0 5.0 0.00 0.00 0.00 93 1016.0
20220814124804 62 350 3.0 5.0 0.00 0.00 0.00 93 1016.0
20220814123804 62 356 2.0 5.0 0.00 0.00 0.00 93 1015.5
20220814122305 62 2 2.0 3.0 0.00 0.00 0.00 93 1015.1
20220814121805 62 15 3.0 5.0 0.00 0.00 0.00 93 1015.2
20220814120804 62 337 1.0 3.0 0.00 0.00 0.00 93 1015.2
20220814115305 61 358 1.0 2.0 0.00 0.00 0.00 93 1015.0
20220814114804 61 30 1.0 2.0 0.00 0.00 0.00 93 1015.1
20220814114304 61 324 1.0 2.0 0.00 0.00 0.00 93 1015.1
20220814113304 61 355 1.0 3.0 0.00 0.00 0.00 93 1015.0
20220814112804 61 349 2.0 5.0 0.00 0.00 0.00 93 1015.1
20220814111804 61 348 2.0 6.0 0.00 0.00 0.00 93 1015.1
20220814110804 61 342 2.0 3.0 0.00 0.00 0.00 93 1015.1
20220814105305 60 340 1.0 2.0 0.00 0.00 0.00 87 1015.0
20220814104804 60 347 1.0 2.0 0.00 0.00 0.00 87 1014.9
20220814104304 60 5 1.0 3.0 0.00 0.00 0.00 87 1014.8
20220814103804 60 338 1.0 3.0 0.00 0.00 0.00 87 1014.9
20220814103304 60 315 0.0 2.0 0.00 0.00 0.00 87 1014.7
20220814102804 60 336 0.0 2.0 0.00 0.00 0.00 87 1014.7
20220814102305 61 335 1.0 3.0 0.00 0.00 0.00 87 1014.6
20220814101804 61 351 2.0 5.0 0.00 0.00 0.00 87 1014.7
20220814101304 61 337 3.0 5.0 0.00 0.00 0.00 87 1014.8
20220814100804 61 321 3.0 5.0 0.00 0.00 0.00 87 1014.7
20220814100304 61 356 3.0 5.0 0.00 0.00 0.00 87 1014.8
20220814095804 61 337 2.0 3.0 0.00 0.00 0.00 87 1014.9
20220814094304 61 336 2.0 3.0 0.00 0.00 0.00 87 1014.7
20220814093804 61 340 3.0 5.0 0.00 0.00 0.00 87 1014.7
20220814092804 61 333 3.0 7.0 0.00 0.00 0.00 87 1014.6
20220814092305 62 307 3.0 9.0 0.00 0.00 0.00 87 1014.6
20220814090804 62 331 2.0 5.0 0.00 0.00 0.00 87 1014.7
20220814085804 62 311 3.0 7.0 0.00 0.00 0.00 87 1014.6
20220814084304 62 351 3.0 5.0 0.00 0.00 0.00 87 1014.7
20220814081805 62 357 2.0 5.0 0.00 0.00 0.00 87 1014.7
20220814081305 62 339 2.0 5.0 0.00 0.00 0.00 87 1014.6
20220814075305 62 356 3.0 5.0 0.00 0.00 0.00 87 1014.5
20220814073304 62 335 2.0 3.0 0.00 0.00 0.00 87 1014.7
20220814072804 62 328 3.0 6.0 0.00 0.00 0.00 87 1014.8
20220814071804 62 333 2.0 7.0 0.00 0.00 0.00 87 1014.6